Location: ???????
(55.3754°N, 39.3545°E)
Time: 06:47:12
(UTC+00:00)

NOSS 3-4 (C) - Pass Details

Date: 14 April 2026
Orbit: 773 x 1438 km, 63.4° (Epoch: 26 December)

Event Time Altitude Azimuth Distance (km) Brightness Sun altitude
Rises 18:05:24 0° 197° (SSW) 3,247 6.0 -13.2°
Reaches altitude 10° 18:07:51 10° 189° (S) 2,347 5.2 -13.4°
Maximum altitude 18:12:44 37° 123° (ESE) 1,264 3.6 -13.9°
Drops below altitude 10° 18:18:07 10° 57° (ENE) 2,598 5.6 -14.5°
Sets 18:20:57 0° 50° (NE) 3,640 6.4 -14.8°
